Regional Weather Roundup
Issued by NWS Little Rock, AR

Home | Current Version | Previous Version | Graphics & Text | Print | Product List | Glossary On
Versions: 1 2 3 4 5 6 7 8 9 10 11 12 13 14 15 16 17 18 19 20 21 22 23 24 25 26 27 28 29 30 31 32 33 34 35 36 37 38 39 40 41 42 43 44 45 46 47 48 49 50
424
ASUS44 KLZK 130205
RWRLZK

WEATHER ROUNDUP FOR ARKANSAS
NATIONAL WEATHER SERVICE LITTLE ROCK AR
800 PM CST TUE DEC 12 2017

NOTE: "FAIR" INDICATES FEW OR NO CLOUDS BELOW 12,000 FEET WITH NO
SIGNIFICANT WEATHER AND/OR OBSTRUCTIONS TO VISIBILITY.

ARZ001-003-010-029-130300-
NORTHWEST ARKANSAS

CITY           SKY/WX    TMP DP  RH WIND       PRES   REMARKS
FAYETTEVILLE   CLOUDY    27  16  63 CALM      30.18F
FORT SMITH     CLOUDY    37  15  40 W5        30.20F
HARRISON       CLOUDY    34  10  37 W5        30.15F WCI  30
BENTONVILLE    CLOUDY    32  13  45 CALM      30.18F
ROGERS         CLOUDY    33  13  43 SW5       30.16F WCI  29
SILOAM SPGS    CLOUDY    33  12  41 S5        30.17F WCI  29
HIGHFILL       CLOUDY    30  12  47 SW5       30.16F WCI  25
SPRINGDALE     CLEAR     32  14  47 CALM      30.18F
$$

ARZ004-005-016-130300-
NORTH CENTRAL ARKANSAS

CITY           SKY/WX    TMP DP  RH WIND       PRES   REMARKS
BATESVILLE     PTCLDY    35  14  42 W5        30.18R WCI  31
FLIPPIN        CLEAR     33  15  47 W5        30.17F WCI  29
MTN HOME       CLEAR     35  12  38 NW3       30.15F
$$

ARZ040-041-130300-
WEST CENTRAL ARKANSAS

CITY           SKY/WX    TMP DP  RH WIND       PRES   REMARKS
MENA           CLEAR     34  18  51 CALM      30.19F
MOUNT IDA      CLEAR     40  15  36 CALM      30.16F
$$

ARZ009-017-025-026-028-130300-
NORTHEAST ARKANSAS

CITY           SKY/WX    TMP DP  RH WIND       PRES   REMARKS
CORNING        FAIR      32  16  51 NW3       30.16F
JONESBORO      CLEAR     33  20  58 CALM      30.16F
NEWPORT        CLEAR     37  16  42 NW5       30.18S
WALNUT RIDGE   CLEAR     34  15  46 NW3       30.17S
BLYTHEVILLE    CLEAR     31  21  66 N5        30.16F WCI  26
$$

ARZ022-023-033-042-044-130300-
CENTRAL ARKANSAS

CITY           SKY/WX    TMP DP  RH WIND       PRES   REMARKS
LITTLE ROCK    CLEAR     41  18  39 SW5       30.19S
N LITTLE ROCK    N/A     41  17  38 CALM      30.20S
SEARCY         CLEAR     33  22  63 CALM      30.19R
HOT SPRINGS    CLEAR     43  19  38 W5        30.19F
RUSSELLVILLE   CLEAR     38  17  42 W6        30.18S
CLINTON        FAIR      28  19  69 CALM      30.19S
$$

ARZ036-130300-
EAST ARKANSAS

CITY           SKY/WX    TMP DP  RH WIND       PRES   REMARKS
WEST MEMPHIS   CLEAR     30  23  75 CALM      30.17S
$$

ARZ050-053-066-070-073-130300-
SOUTHWEST ARKANSAS

CITY           SKY/WX    TMP DP  RH WIND       PRES   REMARKS
ARKADELPHIA    FAIR      40  18  41 CALM      30.21S
CAMDEN         CLEAR     34  19  55 CALM      30.20S
TEXARKANA      CLEAR     43  18  36 SW5       30.21S
EL DORADO      CLEAR     37  27  67 CALM      30.20S
DE QUEEN       CLEAR     32  23  69 E5        30.20S WCI  27
$$

ARZ056-057-069-130300-
SOUTHEAST ARKANSAS

CITY           SKY/WX    TMP DP  RH WIND       PRES   REMARKS
PINE BLUFF     CLEAR     35  23  61 CALM      30.20R
STUTTGART      CLEAR     38  22  52 NW5       30.19S
MONTICELLO     CLEAR     35  25  66 CALM      30.19S

$$






USA.gov is the U.S. government's official web portal to all federal, state and local government web resources and services.